[[{"header":{"parameterUnit":"m.s-1","parameterCategory":2,"la1":30.2991,"la2":30.254,"lo1":-89.0895,"lo2":-89.0444,"dy":0.0017,"dx":0.0017,"nx":28,"ny":28,"refTime":"2025-03-23T09:00:00:Z","depth":"0","parameterNumber":2,"parameterNumberName":"U-component_of_CURRENTS"},"data":[0,0,0,0,0,0,0,0,0,0,0,0,0,0,0,0,0,0,0,0,0,0,0,0,0,0,0,0,0,0,0,0,0,0,0,0,0,0,0,0,0,0,0,0,0,0,0,0,0,0,0,0,0,0,0,0,0,0,-0.2468,-0.2468,0,-0.2468,-0.2468,-0.2468,-0.248,-0.248,-0.2481,-0.2481,-0.2495,-0.2495,-0.2495,0,0,0,0,0,0,0,0,0,0,0,0,0,-0.2458,-0.2458,-0.2468,-0.2468,-0.2468,-0.2468,-0.2468,-0.2468,-0.248,-0.248,-0.2481,-0.2482,-0.2495,-0.2495,-0.2495,0,0,0,0,0,0,0,0,0,0,0,0,0,-0.2458,-0.2458,-0.2468,-0.2476,-0.2477,-0.2468,-0.2468,-0.2468,-0.248,-0.248,-0.2481,-0.2482,-0.2495,-0.2495,-0.2495,-0.2476,0,0,-0.2494,-0.2494,0,0,0,0,0,0,0,0,-0.2458,-0.2458,-0.2475,-0.2476,-0.2477,-0.2477,-0.2469,-0.2472,-0.2479,-0.2476,-0.2481,-0.2482,-0.2491,-0.2491,-0.2486,-0.2477,-0.2478,-0.2494,-0.2494,-0.2494,-0.2493,0,0,0,0,0,0,0,-0.2458,-0.2458,-0.2465,-0.2475,-0.2476,-0.2473,-0.2474,-0.247,-0.2477,-0.2476,-0.2478,-0.2482,-0.2492,-0.2486,-0.2486,-0.2478,-0.2494,-0.2494,-0.2493,-0.2493,-0.2437,-0.2436,0,0,0,0,0,0,-0.2464,-0.2458,-0.2465,-0.2466,-0.2472,-0.2473,-0.2474,-0.2474,-0.2477,-0.2479,-0.2481,-0.2482,-0.2486,-0.2486,-0.2487,-0.2481,-0.2494,-0.2493,-0.2493,-0.2439,-0.2437,-0.2436,0,0,0,0,0,0,-0.2463,-0.2464,-0.2465,-0.2464,-0.2465,-0.2473,-0.2473,-0.2474,-0.2473,-0.2481,-0.2483,-0.248,-0.2486,-0.2487,-0.2477,-0.2481,-0.2493,-0.2493,-0.244,-0.2438,-0.2436,-0.246,0,0,0,0,0,0,-0.2463,-0.2464,-0.2459,-0.2465,-0.2465,-0.2466,-0.2472,-0.2473,-0.2475,-0.2476,-0.248,-0.2482,-0.2487,-0.2477,-0.2477,-0.2481,-0.2493,-0.2442,-0.2439,-0.2437,-0.2461,-0.2459,-0.2457,0,0,0,0,0,-0.2462,-0.2455,-0.2459,-0.2459,-0.246,-0.2466,-0.2465,-0.2472,-0.2474,-0.2474,-0.2468,-0.2482,-0.2461,-0.2476,-0.2476,-0.248,-0.2443,-0.244,-0.2437,-0.2461,-0.2459,-0.2457,0,0,0,0,0,0,-0.2443,-0.2455,-0.246,-0.2455,-0.2464,-0.2469,-0.2464,-0.247,-0.2464,-0.2463,-0.2469,-0.247,-0.2463,-0.2456,-0.2473,-0.2451,-0.2452,-0.2449,-0.2471,-0.2469,-0.2467,-0.2477,-0.2493,0,0,0,0,0,-0.2438,-0.2435,-0.2451,-0.2443,-0.2449,-0.2455,-0.2456,-0.2464,-0.2463,-0.2462,-0.2463,-0.2455,-0.2447,-0.2447,-0.2438,-0.2428,-0.2418,-0.2425,-0.2424,-0.2423,-0.2426,-0.2415,-0.2413,-0.2426,-0.2426,-0.2426,0,0,-0.2425,-0.2433,-0.2429,-0.2439,-0.2442,-0.2454,-0.2457,-0.246,-0.2468,-0.2463,-0.2462,-0.2451,-0.244,-0.2431,-0.2427,-0.2431,-0.2407,-0.2419,-0.2418,-0.2423,-0.2411,-0.2411,-0.241,-0.2424,-0.2424,-0.2424,0,0,-0.2409,-0.2409,-0.2408,-0.2421,-0.2435,-0.2443,-0.2447,-0.2456,-0.2458,-0.2454,-0.245,-0.2436,-0.2427,-0.2421,-0.2416,-0.2393,-0.2398,-0.2389,-0.2396,-0.2385,-0.2385,-0.2384,-0.2354,-0.2351,-0.239,-0.239,-0.239,0,-0.2395,-0.24,-0.2407,-0.242,-0.2432,-0.2442,-0.2454,-0.2456,-0.246,-0.246,-0.2456,-0.2431,-0.2422,-0.2414,-0.2405,-0.2394,-0.2382,-0.2414,-0.2386,-0.2386,-0.2385,-0.2354,-0.2351,-0.2391,-0.2391,-0.2391,-0.2391,0,-0.2389,-0.2398,-0.2398,-0.242,-0.2432,-0.244,-0.2459,-0.2463,-0.2464,-0.2468,-0.2456,-0.2435,-0.2424,-0.2413,-0.2406,-0.2394,-0.2385,-0.2388,-0.2402,-0.2386,-0.2353,-0.2349,-0.2392,-0.2392,-0.2392,-0.2391,0,0,-0.2343,-0.2387,-0.2385,-0.2405,-0.2436,-0.2445,-0.246,-0.2476,-0.2485,-0.2476,-0.2478,-0.2451,-0.2442,-0.2432,-0.2418,-0.2404,-0.238,-0.2397,-0.2396,-0.2385,-0.2344,-0.2252,-0.2239,-0.239,-0.239,-0.2389,-0.2318,0,-0.2335,-0.2363,-0.2387,-0.2411,-0.2429,-0.2455,-0.2472,-0.2488,-0.2493,-0.2496,-0.2475,-0.2467,-0.245,-0.2442,-0.2426,-0.2398,-0.2373,-0.2398,-0.2346,-0.2343,-0.2279,-0.2232,-0.2166,-0.209,-0.2314,-0.2314,-0.2313,0,-0.2316,-0.2343,-0.237,-0.242,-0.2429,-0.2446,-0.2477,-0.2494,-0.2508,-0.2511,-0.2504,-0.2494,-0.247,-0.2455,-0.2402,-0.2423,-0.2382,-0.2354,-0.2351,-0.2257,-0.2244,-0.2142,-0.2074,-0.2066,-0.2307,-0.2307,-0.2308,0,-0.2278,-0.2326,-0.2348,-0.2365,-0.2423,-0.2437,-0.2463,-0.2491,-0.2505,-0.2518,-0.2522,-0.2504,-0.2484,-0.2448,-0.2381,-0.24,-0.2313,-0.2333,-0.2206,-0.2199,-0.2125,-0.2111,-0.2058,-0.2285,-0.2285,-0.2286,-0.2286,0,-0.2256,-0.227,-0.2332,-0.2345,-0.2367,-0.242,-0.2439,-0.2465,-0.2498,-0.2503,-0.2522,-0.2506,-0.2483,-0.2432,-0.2382,-0.2264,-0.2309,-0.219,-0.217,-0.2126,-0.2113,-0.2089,-0.2114,-0.2283,-0.2284,-0.2284,-0.2285,0,-0.2198,-0.2244,-0.2269,-0.2332,-0.2348,-0.236,-0.2419,-0.2433,-0.2479,-0.2486,-0.249,-0.2498,-0.2426,-0.2376,-0.2299,-0.2243,-0.2114,-0.2101,-0.2035,-0.2007,-0.1882,-0.1911,-0.1826,-0.1774,-0.1959,-0.1956,-0.1954,0,-0.2167,-0.2175,-0.2236,-0.2245,-0.2268,-0.2303,-0.2324,-0.2399,-0.2418,-0.2463,-0.2454,-0.2412,-0.2336,-0.2189,-0.2088,-0.1965,-0.1985,-0.1846,-0.1863,-0.1844,-0.1863,-0.1894,-0.1861,-0.1774,-0.177,-0.1767,-0.1765,0,-0.2092,-0.2114,-0.2133,-0.2159,-0.2182,-0.2213,-0.2254,-0.2276,-0.2355,-0.2359,-0.2334,-0.2279,-0.215,-0.1984,-0.1841,-0.177,-0.1813,-0.1779,-0.1788,-0.1723,-0.1727,-0.1678,-0.185,-0.1738,-0.1741,-0.1743,-0.1744,-0.1745,-0.2013,-0.2006,-0.2032,-0.2044,-0.2075,-0.2097,-0.2081,-0.2137,-0.2145,-0.2115,-0.2158,-0.2015,-0.1926,-0.1701,-0.1632,-0.1521,-0.1578,-0.1499,-0.1536,-0.1571,-0.1511,-0.1603,-0.1452,-0.1453,-0.1454,-0.1455,-0.1456,0,-0.1896,-0.1904,-0.1912,-0.1928,-0.192,-0.1975,-0.2002,-0.1948,-0.1906,-0.188,-0.1816,-0.1671,-0.1545,-0.1479,-0.1387,-0.132,-0.1313,-0.1304,-0.1364,-0.1341,-0.1438,-0.142,-0.122,-0.122,-0.122,-0.122,-0.122,-0.122,-0.1835,-0.1797,-0.1807,-0.1757,-0.1769,-0.1707,-0.1693,-0.1602,-0.1535,-0.1373,-0.1268,-0.12,-0.1227,-0.1376,-0.1322,-0.1264,-0.1258,-0.1213,-0.1232,-0.1348,-0.1371,-0.1393,-0.1381,-0.1177,-0.1177,-0.1101,-0.1101,-0.11]},{"header":{"parameterUnit":"m.s-1","parameterCategory":2,"la1":30.2991,"la2":30.254,"lo1":-89.0895,"lo2":-89.0444,"dy":0.0017,"dx":0.0017,"nx":28,"ny":28,"refTime":"2025-03-23T09:00:00:Z","depth":"0","parameterNumber":3,"parameterNumberName":"V-component_of_CURRENTS"},"data":[0,0,0,0,0,0,0,0,0,0,0,0,0,0,0,0,0,0,0,0,0,0,0,0,0,0,0,0,0,0,0,0,0,0,0,0,0,0,0,0,0,0,0,0,0,0,0,0,0,0,0,0,0,0,0,0,0,0,-0.0355,-0.0355,0,-0.0273,-0.0272,-0.0271,-0.0222,-0.0221,-0.0221,-0.0221,-0.0078,-0.0075,-0.0071,0,0,0,0,0,0,0,0,0,0,0,0,0,-0.0427,-0.0426,-0.0356,-0.0355,-0.0354,-0.0273,-0.0272,-0.0271,-0.0222,-0.0221,-0.0221,-0.0221,-0.0079,-0.0075,-0.0071,0,0,0,0,0,0,0,0,0,0,0,0,0,-0.0375,-0.0426,-0.0356,-0.032,-0.0316,-0.0273,-0.0272,-0.027,-0.0222,-0.0221,-0.0221,-0.0221,-0.0081,-0.0076,-0.007,-0.0043,0,0,-0.0054,-0.0051,0,0,0,0,0,0,0,0,-0.0378,-0.0373,-0.0326,-0.0322,-0.0317,-0.0258,-0.0245,-0.0191,-0.0222,-0.0257,-0.0221,-0.0221,-0.0133,-0.0123,-0.0109,-0.0036,-0.003,-0.0053,-0.005,-0.0048,-0.0046,0,0,0,0,0,0,0,-0.0382,-0.0376,-0.0322,-0.0325,-0.032,-0.0293,-0.0285,-0.0235,-0.0196,-0.0254,-0.025,-0.0242,-0.013,-0.0114,-0.0105,-0.0028,-0.0053,-0.0049,-0.0045,-0.0043,0.0077,0.0076,0,0,0,0,0,0,-0.0395,-0.0379,-0.0325,-0.032,-0.0348,-0.0292,-0.0284,-0.0277,-0.0198,-0.0186,-0.0242,-0.024,-0.0124,-0.0111,-0.01,-0.006,-0.0048,-0.0043,-0.0039,0.0077,0.0077,0.0076,0,0,0,0,0,0,-0.0397,-0.0392,-0.0328,-0.0348,-0.0338,-0.0291,-0.0284,-0.0275,-0.0259,-0.019,-0.0177,-0.0234,-0.0123,-0.0107,-0.0061,-0.0054,-0.004,-0.0035,0.0077,0.0077,0.0076,0.0018,0,0,0,0,0,0,-0.04,-0.0393,-0.0393,-0.0349,-0.0338,-0.0309,-0.0284,-0.0274,-0.0254,-0.025,-0.0179,-0.0165,-0.0122,-0.007,-0.0056,-0.0046,-0.0031,0.0077,0.0077,0.0077,0.002,0.0016,0.0013,0,0,0,0,0,-0.0403,-0.0403,-0.0393,-0.0386,-0.0339,-0.0309,-0.0301,-0.0266,-0.0254,-0.025,-0.0205,-0.0167,-0.0061,-0.0065,-0.0049,-0.0038,0.0077,0.0077,0.0077,0.0022,0.0017,0.0013,0,0,0,0,0,0,-0.0431,-0.0397,-0.0385,-0.0374,-0.0348,-0.0301,-0.0292,-0.0271,-0.0232,-0.0228,-0.0166,-0.0149,-0.0107,-0.0067,-0.0074,-0.0005,0.0014,0.0017,-0.0033,-0.0037,-0.0041,-0.0053,-0.0026,0,0,0,0,0,-0.0439,-0.0433,-0.0395,-0.0388,-0.0377,-0.0337,-0.0321,-0.0299,-0.026,-0.0243,-0.0195,-0.0143,-0.0095,-0.0064,-0.0018,0.0023,0.007,0.0039,0.0036,0.0032,0.0033,0.0101,0.0104,0.0076,0.0076,0.0076,0,0,-0.0448,-0.0429,-0.0425,-0.0394,-0.0371,-0.0362,-0.0327,-0.0307,-0.0295,-0.0232,-0.0201,-0.0154,-0.0089,-0.0048,-0.0024,-0.0011,0.0065,0.0032,0.0028,0.0031,0.0101,0.0104,0.0106,0.0076,0.0076,0.0076,0,0,-0.047,-0.0448,-0.0454,-0.0436,-0.0407,-0.038,-0.0378,-0.0336,-0.0313,-0.0279,-0.0232,-0.0184,-0.0114,-0.0065,-0.003,-0.0026,0.0038,-0.0012,-0.0032,0.0034,0.0037,0.004,0.0104,0.0113,-0.0009,-0.0009,-0.0009,0,-0.0483,-0.0486,-0.0451,-0.0453,-0.0442,-0.0394,-0.0399,-0.0366,-0.0315,-0.0291,-0.0279,-0.0171,-0.0121,-0.0056,-0.0059,-0.0033,0.0013,-0.0021,0.0029,0.0033,0.0038,0.0102,0.0113,-0.0012,-0.0012,-0.0011,-0.0011,0,-0.0512,-0.0513,-0.0514,-0.0503,-0.0484,-0.048,-0.0435,-0.0412,-0.0379,-0.034,-0.0277,-0.0208,-0.0141,-0.0118,-0.0087,-0.003,-0.0005,0.0011,0.0039,0.0037,0.0105,0.0118,-0.0016,-0.0015,-0.0014,-0.0014,0,0,-0.0545,-0.0539,-0.0539,-0.0546,-0.0512,-0.0501,-0.0478,-0.0438,-0.0414,-0.0357,-0.0315,-0.0237,-0.0194,-0.0153,-0.0098,-0.0041,0.0025,-0.0009,-0.0004,0.0051,0.0173,0.0209,0.0226,0.005,0.0052,0.0053,0.0208,0,-0.0581,-0.0609,-0.0585,-0.06,-0.0611,-0.0559,-0.054,-0.0493,-0.0439,-0.0385,-0.0299,-0.0241,-0.0206,-0.0172,-0.011,-0.0006,0.0055,-0.0019,0.017,0.0176,0.0205,0.0241,0.0297,0.0442,0.0221,0.0223,0.0225,0,-0.062,-0.0634,-0.0666,-0.0657,-0.0653,-0.0648,-0.0602,-0.0576,-0.0483,-0.0437,-0.0358,-0.0286,-0.0187,-0.0165,0.0014,-0.0035,0.0059,0.0138,0.0146,0.0209,0.0235,0.0409,0.0473,0.0616,0.0245,0.0243,0.0242,0,-0.0676,-0.0686,-0.0718,-0.0717,-0.0697,-0.0692,-0.0671,-0.0596,-0.0564,-0.0466,-0.0421,-0.0298,-0.0218,-0.0097,0.0064,0.0042,0.0266,0.026,0.0384,0.0388,0.0489,0.0498,0.0712,0.0384,0.0384,0.0383,0.0383,0,-0.073,-0.0751,-0.075,-0.0769,-0.0791,-0.0749,-0.0739,-0.0695,-0.0615,-0.0558,-0.0455,-0.0367,-0.0197,-0.0048,0.0073,0.028,0.028,0.0396,0.0437,0.0469,0.0475,0.0645,0.0674,0.0389,0.0388,0.0387,0.0386,0,-0.0791,-0.0793,-0.0828,-0.0825,-0.0825,-0.084,-0.0801,-0.0781,-0.0698,-0.0617,-0.0586,-0.0401,-0.0195,-0.002,0.0212,0.0309,0.0579,0.0555,0.058,0.062,0.0837,0.0859,0.1079,0.1162,0.0712,0.0714,0.0715,0,-0.0826,-0.0855,-0.0882,-0.0905,-0.0909,-0.0915,-0.0912,-0.084,-0.0799,-0.062,-0.0576,-0.036,-0.0172,0.0174,0.0387,0.0622,0.0702,0.0791,0.0753,0.0877,0.0932,0.0931,0.0984,0.0871,0.0874,0.0876,0.0878,0,-0.0887,-0.0897,-0.0927,-0.0984,-0.1001,-0.1003,-0.0981,-0.0954,-0.0833,-0.0714,-0.0509,-0.0341,-0.0001,0.032,0.0606,0.0738,0.089,0.0842,0.0985,0.1088,0.1092,0.1181,0.0733,0.0898,0.0896,0.0894,0.0893,0.0893,-0.0921,-0.0962,-0.1004,-0.105,-0.1074,-0.1064,-0.1014,-0.0929,-0.081,-0.0538,-0.0453,-0.0097,0.0265,0.0694,0.0832,0.1147,0.1073,0.124,0.1262,0.1254,0.1319,0.0903,0.1095,0.1094,0.1094,0.1093,0.1093,0,-0.0958,-0.1001,-0.1061,-0.11,-0.112,-0.111,-0.1031,-0.089,-0.0676,-0.0415,-0.0168,0.0331,0.0708,0.1029,0.1411,0.1568,0.1582,0.1645,0.1679,0.1717,0.1389,0.1381,0.1628,0.1628,0.1628,0.1628,0.1628,0.1627,-0.0976,-0.1043,-0.1078,-0.1122,-0.1132,-0.1035,-0.0952,-0.0685,-0.0439,0.0015,0.0389,0.0649,0.1063,0.1573,0.193,0.1954,0.2087,0.2059,0.212,0.1912,0.1876,0.1841,0.1846,0.2186,0.2186,0.2461,0.2464,0.2466]}],[{"header":{"parameterUnit":"m.s-1","parameterCategory":2,"la1":30.2991,"la2":30.254,"lo1":-89.0895,"lo2":-89.0444,"dy":0.0017,"dx":0.0017,"nx":28,"ny":28,"refTime":"2025-03-23T09:00:00:Z","depth":"2","parameterNumber":2,"parameterNumberName":"U-component_of_CURRENTS"},"data":[0,0,0,0,0,0,0,0,0,0,0,0,0,0,0,0,0,0,0,0,0,0,0,0,0,0,0,0,0,0,0,0,0,0,0,0,0,0,0,0,0,0,0,0,0,0,0,0,0,0,0,0,0,0,0,0,0,0,-0.2363,-0.2364,0,-0.2364,-0.2364,-0.2363,-0.2378,-0.2378,-0.2379,-0.2379,-0.2387,-0.2387,-0.2386,0,0,0,0,0,0,0,0,0,0,0,0,0,-0.2351,-0.2351,-0.2363,-0.2364,-0.2364,-0.2364,-0.2364,-0.2363,-0.2377,-0.2378,-0.2379,-0.238,-0.2387,-0.2387,-0.2386,0,0,0,0,0,0,0,0,0,0,0,0,0,-0.2352,-0.2351,-0.2363,-0.2373,-0.2374,-0.2364,-0.2364,-0.2363,-0.2377,-0.2378,-0.2379,-0.238,-0.2387,-0.2387,-0.2386,-0.2364,0,0,-0.2384,-0.2384,0,0,0,0,0,0,0,0,-0.2352,-0.2352,-0.2371,-0.2372,-0.2373,-0.2374,-0.2362,-0.2365,-0.2377,-0.2373,-0.2379,-0.238,-0.2384,-0.2384,-0.2378,-0.2365,-0.2365,-0.2384,-0.2384,-0.2384,-0.2384,0,0,0,0,0,0,0,-0.2352,-0.2352,-0.2361,-0.2372,-0.2373,-0.2369,-0.237,-0.2362,-0.2372,-0.2374,-0.2375,-0.2379,-0.2385,-0.2379,-0.2379,-0.2365,-0.2384,-0.2384,-0.2384,-0.2383,-0.233,-0.2328,0,0,0,0,0,0,-0.2358,-0.2352,-0.2361,-0.2361,-0.2368,-0.2369,-0.237,-0.2371,-0.2372,-0.2373,-0.2378,-0.238,-0.2379,-0.2379,-0.2379,-0.2375,-0.2384,-0.2383,-0.2383,-0.2331,-0.2329,-0.2328,0,0,0,0,0,0,-0.2357,-0.2358,-0.2361,-0.2359,-0.236,-0.2369,-0.2369,-0.237,-0.2371,-0.2376,-0.2377,-0.2379,-0.238,-0.238,-0.237,-0.2375,-0.2383,-0.2383,-0.2332,-0.233,-0.2329,-0.2355,0,0,0,0,0,0,-0.2357,-0.2358,-0.2354,-0.2359,-0.236,-0.2362,-0.2368,-0.237,-0.2373,-0.2375,-0.2377,-0.2378,-0.2381,-0.2371,-0.237,-0.2375,-0.2382,-0.2333,-0.2331,-0.2329,-0.2355,-0.2354,-0.2353,0,0,0,0,0,-0.2356,-0.2349,-0.2354,-0.2355,-0.2357,-0.2362,-0.2361,-0.2369,-0.2372,-0.2372,-0.2368,-0.2378,-0.2357,-0.237,-0.2369,-0.2373,-0.2334,-0.2332,-0.2329,-0.2356,-0.2354,-0.2353,0,0,0,0,0,0,-0.2338,-0.235,-0.2356,-0.2352,-0.2361,-0.2366,-0.2362,-0.2368,-0.2363,-0.2364,-0.2367,-0.2367,-0.2361,-0.2353,-0.2367,-0.2347,-0.2346,-0.2343,-0.2366,-0.2365,-0.2364,-0.2373,-0.2382,0,0,0,0,0,-0.2333,-0.2331,-0.2347,-0.2341,-0.2346,-0.2353,-0.2354,-0.2363,-0.2363,-0.2362,-0.2363,-0.2354,-0.2346,-0.2346,-0.2336,-0.2326,-0.2314,-0.2324,-0.2323,-0.2322,-0.2325,-0.2312,-0.2312,-0.232,-0.232,-0.232,0,0,-0.2321,-0.2329,-0.2326,-0.2337,-0.234,-0.2352,-0.2355,-0.236,-0.2368,-0.2362,-0.2363,-0.2353,-0.234,-0.2332,-0.2328,-0.233,-0.2308,-0.2319,-0.2319,-0.2322,-0.231,-0.2309,-0.2309,-0.2318,-0.2319,-0.2319,0,0,-0.2306,-0.2308,-0.2308,-0.2321,-0.2336,-0.2343,-0.2348,-0.2357,-0.236,-0.2358,-0.2354,-0.2342,-0.2332,-0.2326,-0.232,-0.2302,-0.2303,-0.2298,-0.2307,-0.2295,-0.2295,-0.2295,-0.2266,-0.2263,-0.23,-0.23,-0.23,0,-0.2294,-0.23,-0.2307,-0.2321,-0.2332,-0.2343,-0.2356,-0.2358,-0.2363,-0.2364,-0.2362,-0.2339,-0.2329,-0.2321,-0.2315,-0.2303,-0.2292,-0.2321,-0.2297,-0.2297,-0.2296,-0.2267,-0.2263,-0.2301,-0.2301,-0.2301,-0.2301,0,-0.2289,-0.2299,-0.2299,-0.2322,-0.2334,-0.2342,-0.2362,-0.2367,-0.237,-0.2374,-0.2365,-0.2344,-0.2334,-0.2325,-0.2317,-0.2307,-0.2297,-0.23,-0.2309,-0.2298,-0.2266,-0.2262,-0.2302,-0.2302,-0.2302,-0.2302,0,0,-0.2245,-0.2289,-0.2288,-0.2308,-0.2339,-0.2348,-0.2364,-0.2381,-0.2391,-0.2384,-0.2388,-0.2363,-0.2354,-0.2345,-0.2331,-0.2317,-0.2296,-0.231,-0.2309,-0.2297,-0.2261,-0.2171,-0.2158,-0.2304,-0.2304,-0.2304,-0.2236,0,-0.2239,-0.2267,-0.2291,-0.2316,-0.2333,-0.236,-0.2377,-0.2394,-0.24,-0.2404,-0.2385,-0.2379,-0.2363,-0.2356,-0.2341,-0.2312,-0.2289,-0.2313,-0.226,-0.2258,-0.2193,-0.2151,-0.2014,-0.1935,-0.2232,-0.2231,-0.2231,0,-0.2222,-0.2249,-0.2276,-0.2325,-0.2335,-0.2352,-0.2384,-0.2401,-0.2416,-0.242,-0.2415,-0.2406,-0.2383,-0.2369,-0.2317,-0.2338,-0.2298,-0.227,-0.2268,-0.2174,-0.216,-0.1995,-0.1917,-0.2224,-0.2225,-0.2225,-0.2226,0,-0.2186,-0.2234,-0.2256,-0.2273,-0.233,-0.2345,-0.2371,-0.24,-0.2413,-0.2428,-0.2432,-0.2416,-0.2396,-0.2362,-0.2297,-0.2315,-0.223,-0.2248,-0.2126,-0.2119,-0.1984,-0.1965,-0.2203,-0.2203,-0.2203,-0.2203,-0.2203,0,-0.2166,-0.2181,-0.2242,-0.2256,-0.2278,-0.2329,-0.235,-0.2375,-0.2408,-0.2412,-0.2433,-0.2417,-0.2395,-0.2346,-0.2298,-0.2183,-0.2227,-0.2111,-0.2091,-0.1984,-0.1967,-0.2211,-0.2213,-0.2201,-0.2201,-0.2202,-0.2202,0,-0.2112,-0.2157,-0.2182,-0.2244,-0.2261,-0.2273,-0.233,-0.2343,-0.239,-0.2394,-0.2399,-0.2409,-0.2339,-0.2292,-0.2218,-0.2163,-0.2079,-0.2026,-0.189,-0.1854,-0.1979,-0.1983,-0.1893,-0.1889,-0.1886,-0.1884,-0.1881,0,-0.2083,-0.2091,-0.2151,-0.216,-0.2184,-0.2218,-0.2238,-0.2311,-0.2327,-0.237,-0.2359,-0.2322,-0.2247,-0.2107,-0.1999,-0.1878,-0.1962,-0.1703,-0.1707,-0.1955,-0.1946,-0.1955,-0.1963,-0.1535,-0.153,-0.1526,-0.1523,0,-0.2012,-0.2033,-0.2053,-0.2077,-0.21,-0.2127,-0.2166,-0.2184,-0.2258,-0.2263,-0.2236,-0.2184,-0.2051,-0.185,-0.1709,-0.1634,-0.1716,-0.1616,-0.1898,-0.1637,-0.1612,-0.1605,-0.1626,-0.1487,-0.1491,-0.1493,-0.1495,-0.1497,-0.1936,-0.1929,-0.1953,-0.1964,-0.1994,-0.2009,-0.1988,-0.2035,-0.2038,-0.2002,-0.2051,-0.1891,-0.183,-0.1507,-0.1408,-0.1327,-0.1447,-0.14,-0.1415,-0.1433,-0.1406,-0.1377,-0.1202,-0.1203,-0.1205,-0.1206,-0.1208,0,-0.1821,-0.1829,-0.1835,-0.1844,-0.1827,-0.189,-0.1907,-0.182,-0.1765,-0.1762,-0.1696,-0.1429,-0.1298,-0.1229,-0.1042,-0.101,-0.1026,-0.0981,-0.1014,-0.1049,-0.108,-0.1039,-0.0735,-0.0733,-0.0732,-0.0731,0,0,-0.1761,-0.172,-0.1725,-0.1661,-0.1673,-0.16,-0.1581,-0.1448,-0.1372,-0.1224,-0.1143,-0.1207,-0.1173,-0.0943,-0.0903,-0.0783,-0.0907,-0.0743,-0.1121,-0.1193,-0.1223,-0.1318,-0.1291,0,0,0,0,0]},{"header":{"parameterUnit":"m.s-1","parameterCategory":2,"la1":30.2991,"la2":30.254,"lo1":-89.0895,"lo2":-89.0444,"dy":0.0017,"dx":0.0017,"nx":28,"ny":28,"refTime":"2025-03-23T09:00:00:Z","depth":"2","parameterNumber":3,"parameterNumberName":"V-component_of_CURRENTS"},"data":[0,0,0,0,0,0,0,0,0,0,0,0,0,0,0,0,0,0,0,0,0,0,0,0,0,0,0,0,0,0,0,0,0,0,0,0,0,0,0,0,0,0,0,0,0,0,0,0,0,0,0,0,0,0,0,0,0,0,-0.042,-0.0419,0,-0.0342,-0.0341,-0.034,-0.0291,-0.0291,-0.0291,-0.029,-0.0156,-0.0153,-0.015,0,0,0,0,0,0,0,0,0,0,0,0,0,-0.0486,-0.0486,-0.042,-0.0419,-0.0418,-0.0342,-0.0341,-0.034,-0.0291,-0.0291,-0.0291,-0.029,-0.0157,-0.0154,-0.0149,0,0,0,0,0,0,0,0,0,0,0,0,0,-0.0438,-0.0485,-0.042,-0.0385,-0.0381,-0.0342,-0.0341,-0.0339,-0.0291,-0.0291,-0.029,-0.029,-0.0159,-0.0154,-0.0149,-0.0125,0,0,-0.0134,-0.0131,0,0,0,0,0,0,0,0,-0.0441,-0.0435,-0.0391,-0.0388,-0.0383,-0.0326,-0.0315,-0.0265,-0.0291,-0.0325,-0.029,-0.029,-0.0208,-0.0199,-0.0186,-0.0119,-0.0113,-0.0133,-0.013,-0.0128,-0.0127,0,0,0,0,0,0,0,-0.0444,-0.0438,-0.0389,-0.039,-0.0385,-0.0359,-0.0352,-0.0305,-0.0268,-0.0322,-0.0318,-0.031,-0.0206,-0.0191,-0.0182,-0.0111,-0.0133,-0.0129,-0.0126,-0.0124,-0.0011,-0.0011,0,0,0,0,0,0,-0.0457,-0.0442,-0.0391,-0.0386,-0.0412,-0.0358,-0.035,-0.0344,-0.027,-0.0259,-0.0311,-0.0308,-0.0199,-0.0188,-0.0177,-0.0138,-0.0128,-0.0123,-0.012,-0.0011,-0.0011,-0.0011,0,0,0,0,0,0,-0.0459,-0.0453,-0.0394,-0.0412,-0.0403,-0.0358,-0.0351,-0.0343,-0.0327,-0.0262,-0.025,-0.0303,-0.0199,-0.0184,-0.014,-0.0132,-0.0121,-0.0116,-0.0011,-0.0011,-0.0011,-0.0063,0,0,0,0,0,0,-0.0461,-0.0454,-0.0454,-0.0413,-0.0403,-0.0376,-0.0351,-0.0342,-0.0323,-0.0319,-0.0251,-0.0239,-0.0197,-0.0148,-0.0136,-0.0125,-0.0113,-0.0011,-0.0011,-0.0011,-0.0061,-0.0065,-0.0068,0,0,0,0,0,-0.0464,-0.0465,-0.0455,-0.0449,-0.0404,-0.0377,-0.0369,-0.0335,-0.0323,-0.0319,-0.0275,-0.0241,-0.0139,-0.0144,-0.0129,-0.0117,-0.0011,-0.0011,-0.0011,-0.006,-0.0064,-0.0068,0,0,0,0,0,0,-0.0491,-0.0459,-0.0447,-0.0438,-0.0413,-0.0369,-0.0361,-0.0339,-0.0302,-0.0298,-0.0239,-0.0224,-0.0183,-0.0146,-0.0153,-0.0086,-0.007,-0.0067,-0.0112,-0.0115,-0.0119,-0.0129,-0.0108,0,0,0,0,0,-0.0499,-0.0494,-0.0458,-0.0452,-0.0442,-0.0403,-0.0388,-0.0367,-0.0329,-0.0313,-0.0267,-0.0217,-0.0172,-0.0142,-0.0099,-0.006,-0.0016,-0.0043,-0.0047,-0.005,-0.0048,0.0016,0.0019,-0.0012,-0.0012,-0.0012,0,0,-0.0508,-0.049,-0.0486,-0.0458,-0.0436,-0.0426,-0.0393,-0.0375,-0.0362,-0.0303,-0.0272,-0.0228,-0.0166,-0.0126,-0.0104,-0.0092,-0.0018,-0.005,-0.0053,-0.005,0.0017,0.002,0.0023,-0.0012,-0.0012,-0.0012,0,0,-0.0529,-0.0509,-0.0514,-0.0497,-0.0469,-0.0443,-0.0442,-0.0402,-0.0379,-0.0346,-0.0301,-0.0255,-0.0189,-0.014,-0.0106,-0.0101,-0.0043,-0.0089,-0.0104,-0.0042,-0.0038,-0.0035,0.0022,0.0031,-0.0085,-0.0085,-0.0085,0,-0.0542,-0.0544,-0.0511,-0.0512,-0.0501,-0.0456,-0.0459,-0.0428,-0.0379,-0.0356,-0.0345,-0.0241,-0.0193,-0.0129,-0.013,-0.0106,-0.0065,-0.0095,-0.0046,-0.0041,-0.0037,0.0021,0.0032,-0.0087,-0.0087,-0.0087,-0.0087,0,-0.0567,-0.0568,-0.0569,-0.0556,-0.0539,-0.0534,-0.0491,-0.0468,-0.0437,-0.0399,-0.0339,-0.0272,-0.0208,-0.0186,-0.0155,-0.0098,-0.0078,-0.0062,-0.0037,-0.0037,0.0024,0.0036,-0.0091,-0.009,-0.0089,-0.0089,0,0,-0.0599,-0.0591,-0.0592,-0.0598,-0.0564,-0.0553,-0.0529,-0.0489,-0.0467,-0.0411,-0.0371,-0.0293,-0.0253,-0.0213,-0.0161,-0.0105,-0.0042,-0.0077,-0.0072,-0.0023,0.0095,0.0126,0.0142,-0.0019,-0.0017,-0.0016,0.0125,0,-0.0632,-0.0656,-0.0632,-0.0645,-0.0654,-0.0604,-0.0585,-0.0539,-0.0488,-0.0437,-0.0353,-0.0298,-0.0263,-0.0231,-0.017,-0.0073,-0.0013,-0.0082,0.0091,0.0096,0.0121,0.0156,0.0101,0.0223,0.0137,0.0139,0.014,0,-0.0666,-0.0679,-0.0708,-0.0697,-0.0694,-0.0688,-0.0644,-0.0618,-0.053,-0.0486,-0.0409,-0.0341,-0.0245,-0.0223,-0.0053,-0.0099,-0.001,0.0064,0.0072,0.0128,0.0149,0.021,0.0249,0.0161,0.0159,0.0158,0.0156,0,-0.072,-0.0727,-0.0756,-0.0754,-0.0734,-0.0729,-0.0709,-0.0637,-0.0607,-0.0514,-0.0474,-0.0354,-0.0281,-0.0163,-0.0011,-0.0029,0.018,0.0176,0.0291,0.0294,0.0296,0.0297,0.0296,0.0296,0.0295,0.0295,0.0295,0,-0.077,-0.0789,-0.0788,-0.0805,-0.0826,-0.0785,-0.0777,-0.0734,-0.0659,-0.0608,-0.0507,-0.0428,-0.0262,-0.0122,-0.0004,0.019,0.0191,0.0302,0.0339,0.0276,0.0273,0.0254,0.0247,0.03,0.0299,0.0298,0.0297,0,-0.0828,-0.0828,-0.0862,-0.0859,-0.0859,-0.0874,-0.0838,-0.0821,-0.0743,-0.0671,-0.0642,-0.0467,-0.0274,-0.0104,0.0117,0.0212,0.0379,0.0445,0.0359,0.0383,0.0447,0.0436,0.0585,0.0588,0.059,0.0591,0.0593,0,-0.0862,-0.0889,-0.0915,-0.0939,-0.0943,-0.095,-0.095,-0.088,-0.0845,-0.0681,-0.0643,-0.044,-0.0267,0.0061,0.025,0.0472,0.0468,0.0547,0.0503,0.046,0.0481,0.0466,0.0453,0.0486,0.0486,0.0486,0.0487,0,-0.0921,-0.0931,-0.096,-0.1018,-0.1037,-0.1044,-0.1027,-0.1006,-0.0893,-0.079,-0.0604,-0.0449,-0.0136,0.011,0.0381,0.0494,0.0501,0.0563,0.0566,0.0414,0.0376,0.0392,0.0381,0.049,0.0489,0.0489,0.0489,0.0489,-0.0957,-0.0997,-0.104,-0.1088,-0.1115,-0.1116,-0.1089,-0.1037,-0.0943,-0.0759,-0.0601,-0.0338,-0.0127,0.0269,0.0439,0.0582,0.0588,0.0608,0.0603,0.0598,0.0555,0.0522,0.0655,0.0656,0.0656,0.0657,0.0657,0,-0.0997,-0.104,-0.11,-0.1147,-0.1181,-0.1169,-0.1119,-0.1093,-0.0962,-0.0783,-0.0573,-0.0268,0.0027,0.0246,0.0474,0.0617,0.0579,0.0632,0.0543,0.0539,0.0536,0.0486,0.057,0.0571,0.0571,0.0571,0,0,-0.1017,-0.1086,-0.1121,-0.1189,-0.121,-0.1191,-0.114,-0.1107,-0.1007,-0.0797,-0.056,-0.0294,-0.0006,0.0145,0.0316,0.0434,0.0426,0.0434,0.0483,0.0345,0.0339,0.0505,0.0422,0,0,0,0,0]}],[{"header":{"parameterUnit":"m.s-1","parameterCategory":2,"la1":30.2991,"la2":30.254,"lo1":-89.0895,"lo2":-89.0444,"dy":0.0017,"dx":0.0017,"nx":28,"ny":28,"refTime":"2025-03-23T09:00:00:Z","depth":"4","parameterNumber":2,"parameterNumberName":"U-component_of_CURRENTS"},"data":[0,0,0,0,0,0,0,0,0,0,0,0,0,0,0,0,0,0,0,0,0,0,0,0,0,0,0,0,0,0,0,0,0,0,0,0,0,0,0,0,0,0,0,0,0,0,0,0,0,0,0,0,0,0,0,0,0,0,-0.1667,-0.1668,0,-0.1715,-0.1715,-0.1716,-0.1779,-0.178,-0.1781,-0.1782,-0.1841,-0.1841,-0.1842,0,0,0,0,0,0,0,0,0,0,0,0,0,-0.1599,-0.1599,-0.1667,-0.1668,-0.1669,-0.1715,-0.1715,-0.1716,-0.1778,-0.178,-0.1781,-0.1783,-0.1841,-0.1841,-0.1842,0,0,0,0,0,0,0,0,0,0,0,0,0,-0.1634,-0.16,-0.1667,-0.1707,-0.1711,-0.1715,-0.1715,-0.1716,-0.1778,-0.178,-0.1782,-0.1783,-0.1841,-0.1841,-0.1842,-0.181,0,0,-0.1844,-0.1844,0,0,0,0,0,0,0,0,-0.1632,-0.1636,-0.17,-0.1704,-0.1709,-0.1744,-0.1713,-0.1748,-0.1778,-0.1751,-0.1782,-0.1784,-0.181,-0.1813,-0.1815,-0.1812,-0.1815,-0.1844,-0.1844,-0.1845,-0.1845,0,0,0,0,0,0,0,-0.1629,-0.1634,-0.1684,-0.1701,-0.1706,-0.1712,-0.1719,-0.1719,-0.1768,-0.1753,-0.1758,-0.1766,-0.1812,-0.1814,-0.1817,-0.1816,-0.1844,-0.1845,-0.1845,-0.1845,-0.1867,-0.1867,0,0,0,0,0,0,-0.1627,-0.1632,-0.1683,-0.1686,-0.1676,-0.1712,-0.172,-0.173,-0.1768,-0.1776,-0.1764,-0.1769,-0.1812,-0.1816,-0.1819,-0.1866,-0.1845,-0.1845,-0.1846,-0.1866,-0.1867,-0.1867,0,0,0,0,0,0,-0.1625,-0.1631,-0.1681,-0.1661,-0.1668,-0.1711,-0.1722,-0.173,-0.1765,-0.1777,-0.1785,-0.1797,-0.1814,-0.1818,-0.1847,-0.1866,-0.1846,-0.1846,-0.1866,-0.1866,-0.1867,-0.1907,0,0,0,0,0,0,-0.1623,-0.163,-0.1647,-0.1661,-0.167,-0.1704,-0.1721,-0.1729,-0.1766,-0.1773,-0.1806,-0.1812,-0.1815,-0.1846,-0.1848,-0.1867,-0.1847,-0.1866,-0.1866,-0.1867,-0.1906,-0.1909,-0.1912,0,0,0,0,0,-0.162,-0.1631,-0.1648,-0.1655,-0.1688,-0.1705,-0.171,-0.1744,-0.1766,-0.1783,-0.1807,-0.1812,-0.1849,-0.1847,-0.1848,-0.1868,-0.1866,-0.1866,-0.1867,-0.1905,-0.1908,-0.1912,0,0,0,0,0,0,-0.1609,-0.1639,-0.1658,-0.1678,-0.1702,-0.1717,-0.1737,-0.1757,-0.1788,-0.1804,-0.1816,-0.1822,-0.1852,-0.1849,-0.1846,-0.1873,-0.1857,-0.1858,-0.1886,-0.1889,-0.1892,-0.1891,-0.1847,0,0,0,0,0,-0.1613,-0.1634,-0.1659,-0.1678,-0.1692,-0.1719,-0.1735,-0.1759,-0.1781,-0.1799,-0.1821,-0.1838,-0.1847,-0.1863,-0.1868,-0.1883,-0.1864,-0.1895,-0.1898,-0.1901,-0.19,-0.1889,-0.1891,-0.1868,-0.1868,-0.1868,0,0,-0.1613,-0.1633,-0.1647,-0.1678,-0.1699,-0.1723,-0.1734,-0.1766,-0.1793,-0.1797,-0.1845,-0.1851,-0.1852,-0.1873,-0.1886,-0.188,-0.1895,-0.1901,-0.1904,-0.1901,-0.189,-0.1892,-0.1894,-0.1868,-0.1868,-0.1868,0,0,-0.1616,-0.1644,-0.1663,-0.1687,-0.1725,-0.174,-0.1756,-0.1789,-0.1816,-0.185,-0.1859,-0.1876,-0.1899,-0.1901,-0.1903,-0.1921,-0.1908,-0.1929,-0.195,-0.194,-0.1942,-0.1944,-0.1913,-0.1911,-0.1934,-0.1934,-0.1934,0,-0.1619,-0.1647,-0.1671,-0.1696,-0.1721,-0.1752,-0.178,-0.1803,-0.1844,-0.1862,-0.1875,-0.1903,-0.1908,-0.1922,-0.1932,-0.1929,-0.1916,-0.194,-0.1945,-0.1946,-0.1947,-0.1915,-0.1913,-0.1936,-0.1936,-0.1935,-0.1935,0,-0.163,-0.1667,-0.1679,-0.1725,-0.1752,-0.178,-0.1815,-0.1849,-0.1883,-0.1902,-0.1936,-0.1938,-0.1954,-0.1958,-0.1954,-0.1964,-0.195,-0.1948,-0.1938,-0.1952,-0.1917,-0.1914,-0.1939,-0.1938,-0.1937,-0.1937,0,0,-0.1599,-0.1675,-0.1683,-0.1716,-0.1774,-0.1793,-0.184,-0.1881,-0.1912,-0.1947,-0.1976,-0.1989,-0.1995,-0.1995,-0.1992,-0.1987,-0.1978,-0.1977,-0.1976,-0.195,-0.1946,-0.1817,-0.18,-0.1986,-0.1986,-0.1986,-0.1916,0,-0.1605,-0.1659,-0.1696,-0.1752,-0.1782,-0.1831,-0.1869,-0.1913,-0.1947,-0.1981,-0.1989,-0.2013,-0.2008,-0.2019,-0.2014,-0.1987,-0.1974,-0.1996,-0.1933,-0.193,-0.1817,-0.1794,-0.1986,-0.1913,-0.1913,-0.1912,-0.1912,0,-0.1597,-0.1639,-0.1697,-0.1774,-0.1792,-0.1833,-0.19,-0.1938,-0.1986,-0.2012,-0.2037,-0.2044,-0.2045,-0.2039,-0.2001,-0.2019,-0.1986,-0.1961,-0.1958,-0.182,-0.1795,-0.1898,-0.1906,-0.1906,-0.1907,-0.1907,-0.1907,0,-0.1552,-0.1635,-0.1685,-0.1712,-0.1801,-0.1842,-0.189,-0.195,-0.1979,-0.2031,-0.2047,-0.206,-0.2057,-0.2032,-0.198,-0.1998,-0.1921,-0.1937,-0.1785,-0.1776,-0.1899,-0.1899,-0.1904,-0.1904,-0.1904,-0.1904,-0.1904,0,-0.1525,-0.1568,-0.1676,-0.1702,-0.1758,-0.1831,-0.1886,-0.1934,-0.1993,-0.2003,-0.2059,-0.2045,-0.2057,-0.2016,-0.1978,-0.1851,-0.1915,-0.1771,-0.1744,-0.1916,-0.1918,-0.1896,-0.1896,-0.1901,-0.1902,-0.1902,-0.1903,0,-0.1458,-0.1534,-0.1594,-0.1703,-0.1739,-0.1778,-0.1877,-0.1902,-0.1976,-0.1987,-0.2002,-0.203,-0.1967,-0.1947,-0.1886,-0.1819,-0.1733,-0.1676,-0.1838,-0.1825,-0.1599,-0.1603,-0.15,-0.1495,-0.1491,-0.1487,-0.1484,0,-0.1423,-0.1451,-0.1574,-0.1606,-0.1661,-0.1735,-0.1774,-0.1875,-0.189,-0.1945,-0.1924,-0.1908,-0.19,-0.1694,-0.1709,-0.161,-0.1594,-0.1548,-0.1592,-0.1571,-0.1556,-0.1566,-0.1575,-0.1477,-0.1476,-0.1474,-0.1473,0,-0.1346,-0.1405,-0.1451,-0.1519,-0.1577,-0.1624,-0.1688,-0.1685,-0.1769,-0.1862,-0.1777,-0.1726,-0.1647,-0.1586,-0.1511,-0.1452,-0.158,-0.1501,-0.1511,-0.1553,-0.1541,-0.1533,-0.1547,-0.1458,-0.146,-0.1461,-0.1462,0,-0.1279,-0.1289,-0.1356,-0.1396,-0.1467,-0.1469,-0.1528,-0.153,-0.1558,-0.163,-0.1592,-0.1576,-0.1615,-0.15,-0.1434,-0.1359,-0.1349,-0.1315,-0.1335,-0.1352,-0.1336,-0.1302,-0.1103,0,0,0,0,0,-0.12,-0.119,-0.1222,-0.1247,-0.131,-0.1333,-0.144,-0.15,-0.1588,-0.148,-0.1531,-0.1448,-0.1349,-0.1353,-0.124,-0.137,-0.1357,-0.1235,-0.1332,-0.1372,-0.139,-0.1385,0,0,0,0,0,0,-0.1145,-0.1169,-0.1172,-0.111,-0.1082,-0.1121,-0.1173,-0.1241,-0.12,-0.1299,-0.1248,-0.1334,-0.1256,-0.1349,-0.1186,-0.1189,-0.1218,-0.1248,-0.1244,-0.1362,-0.1378,-0.1392,-0.1394,0,0,0,0,0]},{"header":{"parameterUnit":"m.s-1","parameterCategory":2,"la1":30.2991,"la2":30.254,"lo1":-89.0895,"lo2":-89.0444,"dy":0.0017,"dx":0.0017,"nx":28,"ny":28,"refTime":"2025-03-23T09:00:00:Z","depth":"4","parameterNumber":3,"parameterNumberName":"V-component_of_CURRENTS"},"data":[0,0,0,0,0,0,0,0,0,0,0,0,0,0,0,0,0,0,0,0,0,0,0,0,0,0,0,0,0,0,0,0,0,0,0,0,0,0,0,0,0,0,0,0,0,0,0,0,0,0,0,0,0,0,0,0,0,0,-0.0372,-0.0372,0,-0.0325,-0.0325,-0.0324,-0.0295,-0.0295,-0.0295,-0.0295,-0.0204,-0.0202,-0.02,0,0,0,0,0,0,0,0,0,0,0,0,0,-0.0399,-0.0399,-0.0372,-0.0372,-0.0371,-0.0325,-0.0325,-0.0324,-0.0295,-0.0295,-0.0295,-0.0295,-0.0205,-0.0202,-0.02,0,0,0,0,0,0,0,0,0,0,0,0,0,-0.0373,-0.0399,-0.0372,-0.0352,-0.0349,-0.0325,-0.0325,-0.0324,-0.0295,-0.0295,-0.0295,-0.0294,-0.0206,-0.0203,-0.0199,-0.018,0,0,-0.0189,-0.0187,0,0,0,0,0,0,0,0,-0.0374,-0.0372,-0.0355,-0.0353,-0.035,-0.0316,-0.0301,-0.0274,-0.0295,-0.0315,-0.0295,-0.0294,-0.0238,-0.0232,-0.0223,-0.0176,-0.0172,-0.0188,-0.0186,-0.0185,-0.0184,0,0,0,0,0,0,0,-0.0376,-0.0373,-0.0353,-0.0355,-0.0352,-0.0332,-0.0328,-0.0296,-0.0277,-0.0313,-0.0311,-0.0307,-0.0237,-0.0227,-0.0221,-0.0171,-0.0188,-0.0185,-0.0183,-0.0182,-0.01,-0.01,0,0,0,0,0,0,-0.0386,-0.0375,-0.0354,-0.0351,-0.0363,-0.0332,-0.0328,-0.0327,-0.0278,-0.0271,-0.0307,-0.0306,-0.0233,-0.0225,-0.0217,-0.0188,-0.0185,-0.0181,-0.0179,-0.01,-0.01,-0.01,0,0,0,0,0,0,-0.0386,-0.0384,-0.0356,-0.0363,-0.0358,-0.0332,-0.0331,-0.0326,-0.032,-0.0274,-0.0266,-0.0307,-0.0232,-0.0222,-0.0194,-0.0185,-0.018,-0.0177,-0.01,-0.01,-0.01,-0.0132,0,0,0,0,0,0,-0.0387,-0.0385,-0.039,-0.0363,-0.0358,-0.0348,-0.0331,-0.0325,-0.0318,-0.0315,-0.027,-0.0262,-0.0231,-0.02,-0.0191,-0.018,-0.0174,-0.01,-0.01,-0.01,-0.0131,-0.0133,-0.0135,0,0,0,0,0,-0.0389,-0.0395,-0.0391,-0.0388,-0.0365,-0.0349,-0.0344,-0.0324,-0.0318,-0.0318,-0.0288,-0.0263,-0.0192,-0.0197,-0.0186,-0.0174,-0.01,-0.01,-0.01,-0.013,-0.0133,-0.0135,0,0,0,0,0,0,-0.0409,-0.0392,-0.0387,-0.0388,-0.0373,-0.0344,-0.0343,-0.033,-0.0307,-0.0306,-0.0263,-0.0252,-0.0224,-0.0198,-0.0204,-0.0151,-0.0141,-0.0139,-0.0168,-0.017,-0.0172,-0.0176,-0.0171,0,0,0,0,0,-0.0417,-0.0419,-0.0398,-0.0401,-0.0395,-0.0372,-0.0364,-0.0351,-0.0326,-0.0317,-0.0286,-0.025,-0.0214,-0.0193,-0.0163,-0.0133,-0.0103,-0.0118,-0.012,-0.0122,-0.0118,-0.0066,-0.0063,-0.0099,-0.0099,-0.0099,0,0,-0.0426,-0.0417,-0.0419,-0.0405,-0.0393,-0.0386,-0.0367,-0.0359,-0.0348,-0.0309,-0.0289,-0.0258,-0.021,-0.0179,-0.0163,-0.0154,-0.0098,-0.0121,-0.0123,-0.0118,-0.0066,-0.0062,-0.0059,-0.0099,-0.0099,-0.0099,0,0,-0.0443,-0.0439,-0.0445,-0.0435,-0.042,-0.0403,-0.0404,-0.038,-0.0365,-0.0344,-0.031,-0.0274,-0.0229,-0.0186,-0.0159,-0.0151,-0.0113,-0.0144,-0.0148,-0.0099,-0.0095,-0.0091,-0.006,-0.0053,-0.014,-0.014,-0.014,0,-0.0456,-0.0459,-0.0444,-0.0444,-0.0438,-0.0414,-0.0415,-0.0394,-0.0363,-0.0347,-0.0344,-0.0265,-0.0228,-0.017,-0.0168,-0.0153,-0.0128,-0.0145,-0.0101,-0.0096,-0.0092,-0.006,-0.0052,-0.0141,-0.0141,-0.0141,-0.0141,0,-0.047,-0.0475,-0.0478,-0.047,-0.0461,-0.046,-0.0431,-0.0419,-0.0402,-0.0375,-0.033,-0.0279,-0.023,-0.021,-0.0185,-0.0133,-0.0128,-0.0114,-0.0096,-0.009,-0.0057,-0.0048,-0.0143,-0.0143,-0.0142,-0.0142,0,0,-0.0492,-0.049,-0.0493,-0.0498,-0.0476,-0.0473,-0.0453,-0.0426,-0.0413,-0.0374,-0.0346,-0.0278,-0.0252,-0.022,-0.0178,-0.013,-0.0082,-0.0113,-0.011,-0.0084,0.0015,-0.0009,-0.0002,-0.0062,-0.006,-0.0059,0.0022,0,-0.051,-0.0527,-0.0512,-0.0523,-0.053,-0.0501,-0.0487,-0.0457,-0.0425,-0.0393,-0.0325,-0.0288,-0.0253,-0.0234,-0.0178,-0.0107,-0.0059,-0.0106,0.0008,0.0011,-0.0012,0.0008,-0.0054,0.0029,0.0031,0.0032,0.0033,0,-0.0525,-0.0537,-0.0559,-0.0559,-0.0558,-0.0559,-0.0536,-0.0518,-0.0458,-0.0431,-0.0372,-0.0324,-0.0244,-0.0224,-0.009,-0.0124,-0.0059,-0.0003,0.0002,-0.0002,0.0003,0.0026,0.005,0.0048,0.0047,0.0046,0.0045,0,-0.0556,-0.0567,-0.0591,-0.0591,-0.0586,-0.0589,-0.0582,-0.0536,-0.0521,-0.0456,-0.0438,-0.0337,-0.0289,-0.0189,-0.0077,-0.0082,0.0064,0.0072,0.0116,0.0114,0.0126,0.0121,0.0169,0.0169,0.0169,0.0168,0.0168,0,-0.0577,-0.0596,-0.0615,-0.0629,-0.0659,-0.0634,-0.0644,-0.0617,-0.0572,-0.0548,-0.0466,-0.0419,-0.0278,-0.0179,-0.0081,0.0041,0.0065,0.0121,0.0139,0.0108,0.0101,0.0131,0.0126,0.0171,0.0171,0.017,0.017,0,-0.0604,-0.0615,-0.065,-0.0668,-0.0679,-0.0702,-0.0703,-0.0701,-0.0653,-0.0617,-0.0599,-0.0474,-0.0341,-0.0205,-0.0034,0.003,0.015,0.0188,0.0135,0.0148,0.0167,0.0159,0.0244,0.0244,0.0244,0.0244,0.0244,0,-0.0617,-0.0641,-0.0695,-0.0729,-0.0745,-0.0773,-0.0791,-0.0753,-0.0739,-0.0644,-0.0624,-0.0493,-0.0399,-0.0173,-0.0036,0.0145,0.017,0.0217,0.0204,0.0168,0.0178,0.017,0.0162,0.0244,0.0244,0.0244,0.0244,0,-0.0644,-0.0673,-0.0707,-0.0785,-0.0826,-0.0857,-0.087,-0.086,-0.0797,-0.0756,-0.0627,-0.0496,-0.0346,-0.0169,-0.0032,0.0099,0.0176,0.0217,0.0218,0.0207,0.0169,0.0177,0.017,0.0243,0.0243,0.0243,0.0243,0,-0.0668,-0.0708,-0.0767,-0.0829,-0.0891,-0.0921,-0.0918,-0.0876,-0.0845,-0.0722,-0.0678,-0.0499,-0.0382,-0.0192,-0.0063,0.0057,0.0087,0.0112,0.0119,0.012,0.0055,-0.0013,0.0029,0,0,0,0,0,-0.0685,-0.0734,-0.0802,-0.0873,-0.0936,-0.0966,-0.0962,-0.0939,-0.0872,-0.0786,-0.0723,-0.0573,-0.0349,-0.0245,-0.0126,-0.0087,0.0082,0.005,0.0108,0.0243,0.0243,0.0185,0,0,0,0,0,0,-0.0698,-0.0768,-0.0806,-0.0898,-0.0952,-0.1008,-0.1005,-0.0956,-0.0889,-0.08,-0.0673,-0.0576,-0.0357,-0.0422,-0.0136,-0.0097,-0.0052,0.0166,0.0168,0.0242,0.0243,0.0243,0.0183,0,0,0,0,0]}]]